カタログに戻る

CZ-4 DEB

運用中SSO
NORAD 26286·DEBRIS·🇨🇳 China

打ち上げ Oct 14, 1999 から Taiyuan Satellite Launch Center

Loading…

次のパス (今後24時間)

TLE

最新Source: Space-Track

元期: Sep 14, 2026, 03:26 UTC

1 26286U 99057FY  26257.14366076  .00001540  00000-0  29239-3 0  9997
2 26286  98.3797 324.4361 0057501 331.9621  57.6328 14.64695110400232

AllMySatでCZ-4 DEBをリアルタイム追跡

Download on the App Store